ONEWEB-0364 (49290 NORAD) Tracking and Keplerian Element Data

This shows tracking and keplerian element data for the satellite.

Feedback or suggestion? Click here.




ElementValue
Catalog49290
NameONEWEB-0364
Epoch Orbit356
Epoch Day339.91667824
Epoch Year2021
RAAN275.0608
Inclination87.2039
Eccentricity0.0013058
Argument of Perigee92.425
Mean Anonmoly315.3116
Mean Motion14.88433566
Decay Rate-0.00050422
L11 49290U 21090M 21339.91667824 -.00050422 00000+0 -54785-2 0 9992
L22 49290 87.2039 275.0608 0013058 92.4250 315.3116 14.88433566 3564

Live tracking and technical data element details for ONEWEB-0364 (NORAD 49290). ONEWEB-0364 can be tracked NOW for your location showing map with azimuth and elevation plus other details from your city location.

Track the satellite on the map from your city or location and see movement details for azimuth, elevation, latitude, longitude, range, height, and movement on the map or in text.







IsCatalogInMostPopularTable: catalog: 49290, numindb: 7
Update: records affected: 1



GetName: 49290 ONEWEB-0364

Hit Count: updated at: Mon, 06 Dec 2021 14:07:14 GMT